STARLINK-32892, 62893

Orbit data source: Space-Track

STARLINK-32892, 62893 is a payload satellite owned by SpaceX/Seattle (US) in LEO that was launched on Tue, 04 Feb 2025 UTC via an FALCON 9 launch vehicle from the Air Force Eastern Test Range (AFETR). Payload-class satellites include a variety of spacecraft equipped with specific instruments for various scientific and technological missions. These include communications satellites like Starlink; space stations such as the ISS; scientific satellites like the Hubble; Earth observation satellites from companies like Planet Labs, Umbra, and HawkEye 360; GPS; miniature CubeSats for education and research; and military/defense satellites.

Loading next visibility...
Identifier
62893, 2025-024Q
Orbit
LEO
Country
Flag of USUS
Related business
Manufacturer
SpaceX/Seattle
Mission
Operational Commercial Communications
Bus & Motor
STARLINK V2M, Unknown motor
Mass
730 kg wet, ~700 kg dry
Launch date (UTC)
2025-02-04 (9 months ago)
Launch vehicle
FALCON 9
Launch site
Air Force Eastern Test Range (AFETR)
Object type
Payload
Rocket body
Debris
Shape & HBR
Box + 2 Pan, 17.7 m
Radar Cross Section
33.884 m², Large (>1 m²)

Expand to show TLE details & history
Last TLE update: 1 day ago

TLE from 1 day ago
0 STARLINK-32892
1 62893U 25024Q   25309.97718620  .00030004  00000-0  10940-2 0  9993
2 62893  42.9965 304.2064 0001928  96.1714 263.9358 15.27622494 43344
Epoch: 2025-11-05T23:27Z
TLE epoch observation values (Epoch: 2025-11-05T23:27:08.887Z)
Latitude
0.00002°
Longitude
-93.02272°
Altitude
482.837 km
Speed
7.626 km/s
True Right ascension
20h 16m 49s
True Declination
0° 00' 00"
Sunlit
Object was in daylight at epoch
Visualization orbit readout
Latitude
Unknown
Longitude
Unknown
Altitude
Unknown
Speed
Unknown
Apparent Right ascension
Unknown
Apparent Declination
Unknown
Sunlit
N/A
Visualization observer readout
Local Sidereal Time
03:47:15
Azimuth
Unknown
Elevation
Unknown
Doppler factor
Unknown
Orbital elements
Apogee altitude
486.191 km
Perigee altitude
483.544 km
Semi-major axis
6,863.005 km
Eccentricity
0.00019
Inclination
42.9965°
RAAN
304.2064°
Arg. of periapsis
96.1714°
True anomaly
263.91383°
Mean anomaly
263.9358°
Eccentric anomaly
263.92482°
Mean motion
3.81744 °/min
Orbital period
94.3 mins
BSTAR
0.001094
Loading maneuver chart data...
Computing Atmospheric mass density...
Loading historical data...
Loading historical data...
Loading historical data...
Loading historical data...
Loading historical data...
Loading historical data...
Loading historical data...

Documentation

Showing up to 5 results
|